RH
5 1 1 1 4 14 25 20 19 22 17 14 20 34 34 92 91 87 85 80 82 78 97 95 99 98 97 58 56 69 93 97 97 91 94 98 93 81 60 48 42 64 76 68
5 1 1 1 5 19 42 42 38 35 35 30 15 19 38 39 89 98 88 81 75 69 76 90 94 97 99 75 45 36 47 71 88 98 97 97 95 97 90 86 50 44 87 78
5 1 1 1 3 24 40 39 54 64 61 46 47 27 21 31 42 73 94 92 82 74 65 68 83 87 95 92 82 47 36 21 12 63 94 98 97 97 97 95 95 63 50 77
4 1 1 1 2 14 33 34 48 65 71 58 59 59 29 26 30 48 62 48 71 74 72 65 66 78 84 88 86 82 36 24 19 19 28 49 90 95 97 97 96 96 82 68
4 1 1 1 2 3 19 27 33 66 78 52 50 49 30 25 26 30 42 41 24 44 60 66 65 68 69 66 81 76 73 82 66 10 10 10 15 30 55 96 98 97 98 96
5 1 1 1 2 2 4 15 27 50 78 69 44 22 17 19 23 25 32 42 52 25 24 46 60 61 65 68 68 86 84 61 46 75 71 30 9 9 11 16 71 88 96 98
6 2 1 1 2 2 2 3 23 37 68 75 61 38 24 15 16 22 24 28 33 51 49 24 23 45 53 57 59 60 68 72 78 66 59 74 71 50 25 12 13 22 32 57
6 2 1 1 2 2 4 6 22 38 55 68 73 58 54 40 44 40 30 26 22 17 20 41 46 22 25 39 47 48 49 51 53 66 69 74 76 64 31 9 13 13 14 44
6 3 1 1 1 2 4 9 25 47 48 62 71 75 55 60 52 50 46 40 33 26 18 13 9 17 36 37 33 31 31 28 28 32 52 64 70 74 76 56 51 44 28 50
6 3 2 1 2 2 4 11 26 49 48 48 65 75 72 66 63 53 46 46 44 36 29 23 20 17 13 8 7 8 11 20 27 30 26 27 45 65 78 83 80 80 79 47
6 5 2 2 1 2 5 12 35 52 53 48 46 54 73 72 71 67 69 68 59 38 26 22 18 16 16 16 18 18 16 13 8 5 8 15 18 19 36 60 65 70 84 88
6 6 2 2 2 2 4 12 50 58 58 58 45 44 50 61 66 65 66 64 56 47 38 29 26 28 31 25 20 18 20 17 17 18 16 12 7 6 7 8 12 43 61 66
6 7 2 2 2 2 3 6 26 58 60 60 48 47 53 61 63 68 64 66 58 42 30 26 29 28 26 26 27 22 19 17 17 15 18 20 20 21 20 17 16 14 11 21
5 6 4 2 2 1 2 2 7 24 52 65 62 60 63 58 56 60 68 58 43 42 40 39 40 33 26 22 19 19 19 18 17 19 21 24 25 25 25 28 32 34 30 29
5 6 7 2 2 2 2 2 3 5 26 49 65 67 68 62 63 72 70 52 46 36 30 26 25 22 23 27 24 22 21 22 24 26 30 30 30 39 39 34 29 30 32 34
6 6 7 5 2 2 2 2 2 3 3 24 44 59 60 60 67 73 68 62 53 38 24 19 16 14 12 10 8 12 20 25 30 34 36 41 40 21 26 44 38 35 35 38
16 5 6 8 3 2 2 2 2 2 3 3 16 38 57 61 72 75 62 54 42 33 30 25 20 18 15 12 10 7 8 21 34 31 12 18 31 40 38 63 65 69 63 69
40 10 5 7 7 3 3 2 2 2 2 2 4 15 49 64 85 81 76 53 43 43 35 29 23 18 13 10 8 7 12 37 23 17 16 29 30 47 52 86 96 69 100 100
51 34 5 6 8 5 3 3 2 2 1 2 2 5 30 69 88 80 72 50 49 54 44 34 21 14 11 9 11 14 39 30 23 22 32 40 40 70 69 96 100 100 97 98
56 50 15 5 6 8 4 4 3 2 1 1 2 3 5 36 77 83 71 64 72 59 44 27 15 10 8 8 26 52 57 49 37 28 34 54 52 55 90 100 100 100 99 100
56 54 50 9 6 8 7 4 4 2 2 1 1 2 2 7 14 53 78 74 65 47 30 13 10 8 8 10 12 42 65 61 69 67 61 66 73 70 76 66 45 38 36 30
58 56 57 46 8 7 9 9 4 4 2 2 1 1 2 2 3 9 13 25 34 20 11 8 7 9 9 4 3 10 22 21 14 12 40 32 27 31 44 54 54 48 37 23
71 60 59 57 25 9 7 10 9 4 4 3 2 2 1 2 2 2 4 6 7 8 7 4 2 2 4 4 5 5 4 4 6 6 7 7 7 8 9 10 10 10 9 9
71 71 55 56 53 25 10 8 10 7 4 4 3 3 2 3 2 2 2 1 1 2 3 4 5 4 5 7 9 10 11 12 15 17 20 19 18 16 15 13 11 10 9 8
66 70 73 60 78 52 34 10 9 10 7 5 4 3 3 3 4 3 4 4 4 4 6 7 7 7 8 10 12 13 15 17 19 22 23 25 27 29 31 32 31 31 30 28
74 70 67 75 82 61 69 54 10 10 10 8 5 4 3 3 3 4 4 5 6 7 8 8 8 9 11 13 16 20 24 27 28 28 26 23 18 16 16 19 22 28 32 37
Wind_Speed
41 43 42 35 28 25 25 22 19 13 12 13 12 11 16 20 26 29 32 32 32 31 33 35 27 35 40 41 39 36 47 38 38 36 47 41 44 48 45 44 43 41 41 40
40 41 39 36 26 23 23 22 20 16 12 11 12 12 13 17 19 26 29 31 32 34 34 33 36 34 37 42 41 42 40 36 42 42 43 44 44 40 46 45 49 45 47 43
38 40 39 38 29 22 21 23 24 18 15 14 14 11 12 15 17 18 23 27 30 31 32 32 33 35 32 37 47 43 41 41 37 40 36 42 36 42 42 42 50 48 49 46
36 38 37 35 30 23 21 22 22 20 14 15 11 10 10 11 16 17 18 22 25 29 30 31 31 34 34 31 36 50 42 42 41 39 43 39 35 39 30 26 35 46 52 55
35 37 36 35 30 26 21 22 22 21 16 13 9 6 7 10 11 16 16 17 19 25 28 30 30 31 33 32 33 39 45 50 48 41 43 43 43 45 44 37 32 23 25 31
34 35 37 36 33 27 23 21 20 19 18 12 13 7 4 9 10 12 15 17 17 18 24 28 30 32 32 33 32 32 38 43 51 51 53 48 45 46 45 43 43 43 36 31
32 34 37 37 35 32 27 21 16 16 16 16 8 6 3 4 7 8 11 14 17 20 21 21 27 29 31 34 35 35 35 36 39 43 52 53 54 52 50 47 46 44 44 42
30 34 37 37 37 37 32 20 13 12 14 13 12 6 4 2 2 4 6 10 12 16 19 23 26 27 29 32 34 35 36 37 36 40 42 45 51 53 53 52 49 46 45 42
29 31 35 36 40 42 39 20 7 6 10 12 12 11 8 4 4 7 8 9 11 12 14 17 21 25 28 31 33 34 35 35 35 36 40 44 46 50 55 56 53 50 47 43
27 29 34 38 39 42 41 27 6 5 8 13 13 12 9 7 4 5 5 7 9 12 12 10 12 16 20 25 29 32 35 36 37 39 39 39 41 45 49 52 53 54 54 49
24 28 31 35 38 41 40 27 14 7 8 10 12 11 11 9 8 7 6 8 7 7 9 10 12 14 16 19 21 22 24 27 33 39 42 42 44 44 45 47 49 49 51 53
21 26 28 33 33 36 36 27 17 12 8 11 12 12 10 10 9 9 10 11 11 12 12 13 13 13 14 18 21 24 25 24 24 28 29 33 41 46 48 48 48 48 49 50
18 23 25 28 30 31 29 29 15 13 10 10 11 10 9 9 8 9 9 10 10 12 12 12 8 5 6 10 13 19 22 24 22 20 22 23 24 24 28 33 38 44 50 51
16 20 23 26 30 31 30 28 23 12 9 9 9 9 7 8 9 6 8 6 8 8 12 15 19 18 10 6 6 10 13 16 19 25 27 28 28 30 34 37 39 40 38 40
14 17 22 23 27 28 28 27 26 19 10 9 9 7 5 6 8 7 3 3 7 8 9 10 12 14 16 12 10 12 16 18 20 24 26 30 33 35 38 43 46 48 46 44
14 13 18 21 23 26 27 28 28 24 17 10 9 8 7 4 0 0 3 5 7 9 9 10 12 13 14 15 15 13 12 12 15 21 24 29 37 37 22 32 41 42 45 42
15 14 13 18 19 22 23 26 27 28 22 19 9 9 8 6 5 4 6 7 8 9 12 14 15 18 19 20 20 21 15 12 12 11 18 14 8 12 19 17 14 20 24 18
16 16 14 15 19 19 22 26 26 29 27 21 17 8 7 7 7 8 10 11 11 12 12 14 17 19 20 20 21 22 17 7 2 9 7 1 15 10 9 4 3 19 9 5
16 18 14 13 15 18 19 22 23 25 28 25 23 16 7 7 7 9 11 11 13 15 16 17 16 15 14 17 19 17 3 3 2 5 3 7 3 11 6 13 13 11 16 10
19 17 17 15 14 16 15 17 22 22 23 26 22 21 23 8 9 11 11 12 12 13 16 17 12 7 8 10 15 21 5 2 2 1 9 11 10 9 7 7 11 18 19 19
22 19 17 17 14 14 15 15 18 19 20 21 23 20 21 22 14 13 12 10 10 12 14 9 4 3 5 8 9 18 24 23 15 20 20 17 20 18 13 22 22 20 18 16
22 21 18 19 16 14 14 14 14 16 18 17 18 19 16 18 22 17 7 9 10 10 1 1 3 4 5 8 12 12 17 22 21 20 26 26 22 23 20 17 15 13 11 9
24 25 21 21 18 19 16 14 13 12 15 14 13 15 14 15 15 16 15 12 9 7 5 8 10 14 13 13 16 18 19 19 17 18 18 17 16 16 14 12 10 9 8 7
28 29 24 23 21 25 21 16 14 13 11 12 11 10 10 12 12 13 14 14 13 14 13 10 10 10 10 11 11 13 15 15 15 15 15 15 13 12 11 10 8 7 7 6
27 27 24 25 21 31 25 20 19 16 14 12 11 9 6 6 6 7 8 7 7 5 5 4 4 5 5 7 7 8 9 10 11 11 11 11 11 11 10 10 9 8 7 6
34 28 29 27 29 33 29 24 24 23 19 17 13 14 11 6 4 3 2 1 1 1 1 2 4 4 5 6 6 7 8 9 10 9 9 8 8 8 8 8 8 9 9 10
Wind_Direction
353 356 357 358 354 352 355 352 352 346 330 292 287 264 244 237 231 232 234 236 237 243 244 235 240 227 225 225 221 226 219 218 209 229 228 217 231 230 230 232 233 232 237 237
352 355 358 359 355 348 355 355 351 352 350 326 292 267 247 241 241 233 234 234 234 236 240 244 244 238 234 232 229 227 233 243 233 219 233 230 229 241 232 235 235 234 235 236
353 355 1 360 357 346 353 356 353 341 333 325 299 291 252 237 234 240 237 233 235 235 238 242 241 244 240 236 234 232 232 238 239 252 232 229 228 239 239 242 238 237 240 242
355 358 1 1 356 346 342 350 355 357 338 336 308 293 270 239 231 233 236 238 235 234 234 237 239 236 243 245 240 235 238 238 240 236 241 243 243 237 241 255 250 245 239 243
357 360 3 4 356 349 332 338 353 359 359 359 348 299 244 235 240 236 239 242 238 235 234 233 234 236 237 240 244 241 240 243 242 243 245 248 248 249 261 261 234 243 244 262
358 359 1 6 1 353 343 331 344 3 8 7 22 30 254 236 239 244 243 244 243 239 233 233 234 235 236 236 238 241 238 245 246 246 248 249 248 251 253 258 259 259 255 258
355 359 0 5 5 358 350 335 333 358 10 11 11 33 43 265 259 255 253 254 253 247 243 236 232 233 236 236 237 240 239 242 243 245 246 247 251 253 256 255 254 255 261 267
355 358 358 2 6 3 354 334 324 347 9 8 7 346 311 298 291 265 250 254 256 256 253 246 239 233 235 237 239 239 241 243 244 244 245 248 251 252 253 254 254 255 256 258
355 357 357 4 5 6 3 349 326 336 14 11 18 12 2 298 287 288 279 274 272 269 265 261 256 248 244 243 242 242 242 243 246 248 248 247 248 248 251 255 256 258 258 253
353 356 357 4 6 8 9 7 358 357 19 18 21 27 28 15 345 316 304 294 283 278 271 262 249 248 248 250 250 250 250 248 248 247 248 251 252 252 252 252 256 255 254 256
349 357 358 3 7 10 13 14 21 18 26 23 18 15 23 25 10 354 343 354 346 288 275 269 263 259 256 255 256 256 256 255 254 252 251 250 250 250 251 253 255 255 256 254
346 357 359 3 8 13 15 16 21 25 24 17 14 3 9 9 8 7 359 354 347 342 333 309 291 269 255 248 251 255 258 256 256 254 255 254 256 255 253 253 255 256 256 258
339 353 357 3 9 14 17 17 14 19 17 6 10 5 10 7 2 1 7 18 10 4 0 355 347 318 270 244 242 247 251 246 246 251 246 249 252 255 255 253 256 257 256 255
330 345 356 1 5 11 14 16 14 6 360 355 2 14 20 9 5 23 70 66 37 39 36 17 11 14 2 333 281 259 265 265 260 254 260 264 259 257 258 258 256 253 252 254
320 334 349 358 2 7 11 14 11 7 346 343 336 353 20 27 39 78 74 19 350 360 16 15 2 5 9 12 354 311 288 273 271 274 270 265 259 266 270 268 264 261 255 250
307 323 342 350 357 4 6 10 12 7 4 324 322 311 320 326 14 330 289 321 325 334 354 360 2 2 357 347 338 329 321 308 287 276 279 283 279 284 279 277 262 253 246 245
301 304 325 341 350 1 4 5 10 9 4 359 303 295 298 291 266 262 289 307 314 320 331 339 344 346 346 338 335 336 336 299 303 302 301 306 305 308 272 300 276 243 240 234
298 296 304 330 343 354 2 2 7 9 10 11 4 275 276 270 268 272 287 299 305 318 325 334 333 332 333 336 333 330 338 308 341 344 353 353 318 313 322 295 116 179 142 196
291 292 290 307 332 344 357 0 359 8 9 16 21 18 280 275 265 287 290 295 304 314 323 332 333 331 342 4 354 344 30 185 91 26 47 10 60 27 11 98 143 148 187 195
281 286 285 288 310 330 344 356 355 4 12 18 21 22 22 315 287 291 297 299 305 314 319 324 326 338 19 27 39 48 151 193 164 61 38 21 33 13 124 185 127 116 98 99
270 279 282 276 289 307 325 343 352 352 5 10 19 27 22 14 337 293 286 292 299 304 309 311 324 16 34 24 57 74 76 77 86 88 74 79 84 80 102 101 95 96 100 102
265 274 277 275 273 281 303 324 336 343 348 6 9 17 21 20 20 17 343 268 285 302 73 103 39 18 33 70 84 91 88 86 84 87 93 87 88 89 94 103 107 112 115 123
265 265 272 278 269 267 274 294 315 328 334 346 6 15 20 34 40 44 53 73 91 100 85 78 83 96 100 93 95 97 97 93 85 81 85 90 90 89 89 85 87 88 94 102
263 263 266 270 268 264 261 270 287 297 312 317 334 1 17 23 33 47 58 73 92 99 100 97 92 99 103 100 95 92 90 91 87 86 87 88 87 86 85 83 80 76 75 72
257 267 271 260 263 265 268 261 266 275 284 294 293 307 337 5 20 36 47 59 69 70 72 88 103 108 112 114 108 106 104 101 98 97 94 91 89 85 79 72 65 59 55 49
253 265 267 266 255 269 271 267 258 257 264 275 276 275 279 279 302 323 351 9 23 75 163 126 124 134 141 131 120 114 106 99 93 91 85 79 71 62 52 44 35 29 24 13